Location: Arroyo de las Cañas
(34.0417°N, 106.7270°W)
Time: 21:33:29
(UTC+00:00)

Daily predictions for brighter satellites

Satellite Brightness Start Highest point End
(mag) Time Altitude Azimuth Time Altitude Azimuth Time Altitude Azimuth
ASTEX 1 4.4 12:02:07 10° NNE 12:06:49 45° E 12:11:31 10° SSE
Cosmos 1707 Rocket 3.6 12:11:02 60° NNE 12:11:44 75° E 12:16:01 10° S
ARIANE 5 R/B 4.3 12:08:05 10° NE 12:12:34 32° E 12:17:00 10° SSE
Okean 3 3.5 12:15:23 66° S 12:15:23 66° S 12:18:58 10° S
ATLAS 3B R/B 4.2 12:20:33 21° NNW 12:20:33 21° NNW 12:24:54 10° N
Thor Agena Rocket 3.9 12:15:03 10° N 12:25:10 10° SSW 12:19:01 45° NNW
Okean 2 3.2 12:20:27 74° NNE 12:20:46 85° E 12:24:43 10° S
CENTAUR R/B 4.2 12:13:27 10° NNW 12:21:42 47° NE 12:30:38 10° SE
Cosmos 2082 4.4 12:25:25 33° NNW 12:25:25 33° NNW 12:29:20 10° N
Cosmos 1470 Rocket 3.5 12:23:01 10° S 12:27:27 88° E 12:31:55 10° N
Cosmos 1862 Rocket 3.4 12:27:51 35° NNW 12:29:38 74° W 12:34:03 10° S
Cosmos 1072 Rocket 4.4 12:24:32 10° S 12:30:56 77° W 12:37:22 10° N
SKYMED 2 3.4 12:27:22 10° SSE 12:31:42 89° W 12:34:46 19° NNW
Gbstr 26 Del rocket 4.3 12:27:43 22° WSW 12:33:08 72° NW 12:40:25 10° NE
Cosmos 1513 Rocket 4.4 12:29:20 10° SSW 12:35:14 55° W 12:41:10 10° N
Cosmos 2285 Rocket 4.1 12:29:45 10° SSW 12:36:07 83° ESE 12:42:34 10° NNE
Cosmos 304 Rocket 3.6 12:37:03 10° SSW 12:41:46 69° WNW 12:46:32 10° NNE
Cosmos 1933 Rocket 4.2 12:37:46 10° S 12:41:59 57° E 12:46:14 10° NNE
NOAA 12 4.1 12:37:04 10° N 12:42:10 56° WNW 12:47:17 10° SSW
Cosmos 1825 4.2 12:40:37 10° NNE 12:42:59 21° ENE 12:45:21 10° SE
Cosmos 1943 3.7 12:40:35 10° NNW 12:46:07 58° ENE 12:51:37 10° SE
Cosmos 1464 Rocket 4.0 12:40:23 10° SSW 12:46:34 62° W 12:52:51 10° N
IRS-1C 4.3 12:42:33 10° NNE 12:47:53 77° ESE 12:53:11 10° S
Cosmos 1300 2.3 12:46:28 10° SSW 12:49:42 53° W 12:53:00 10° N
Cosmos 2034 Rocket 3.9 12:46:28 10° S 12:52:43 85° W 12:58:56 10° N
Cosmos 2263 Rocket 3.9 12:55:45 14° NNW 12:55:45 14° NNW 12:57:14 10° NNW
Cosmos 1703 Rocket 3.9 12:54:00 10° N 12:58:21 66° E 13:02:38 10° SSE
Cosmos 2228 Rocket 3.9 12:58:03 24° WNW 12:59:31 29° W 13:03:22 10° SSW
Centaur D AC-25 4.5 12:58:46 12° WSW 13:00:52 14° SW 13:03:06 10° S
SL-16 R/B 3.0 12:59:27 21° WNW 13:01:47 29° WSW 13:06:34 10° SSW
ADEOS Rocket 3.1 12:58:03 10° N 13:04:07 62° WNW 13:10:51 10° SSW
Cosmos 1892 3.8 13:03:14 10° N 13:06:21 39° E 13:09:27 10° SSE
Cosmos 1814 Rocket 4.0 13:03:07 10° NNW 13:08:21 63° WSW 13:13:31 10° S
SMAP 3.6 13:09:19 10° NNE 13:13:56 63° E 13:18:31 10° S
Okean 1-7 3.5 13:11:58 10° NNW 13:15:47 34° W 13:19:33 10° SSW
Cosmos 1703 3.3 13:16:29 10° NNW 13:19:51 44° W 13:23:15 10° SSW
COSMO-SKYMED 1 3.7 13:16:29 10° SSW 13:19:55 23° W 13:23:23 10° NW
Cosmos 1844 Rocket 2.9 13:17:38 10° SW 13:23:02 48° WNW 13:28:27 10° N
USA 290 2.1 13:20:11 10° SSW 13:23:18 62° WNW 13:26:27 10° N
Cosmos 371 Rocket 4.4 13:20:15 10° WSW 13:24:03 23° WNW 13:27:53 10° NNW
CZ-2D R/B 3.2 13:22:19 10° N 13:26:20 80° WNW 13:30:14 10° SSW
Cosmos 1603 4.0 13:21:26 10° NNW 13:27:12 73° ENE 13:32:55 10° SSE
Meteor 2-12 Rocket 4.4 13:21:10 10° NNW 13:27:19 72° W 13:33:25 10° S
OAO 2 Rocket 3.8 13:23:18 10° WSW 13:28:05 59° SSE 13:32:55 10° E
Cosmos 1455 1.6 13:25:01 10° SSW 13:28:10 72° W 13:31:19 10° N
Meteor 1-15 Rocket 4.4 13:26:29 10° SSW 13:32:17 59° W 13:38:08 10° N
BREEZE-M DEB (TANK) 4.2 13:22:40 10° NW 13:32:19 84° SW 13:35:38 10° SE
YAOGAN 11 4.5 13:29:34 10° S 13:33:40 41° W 13:37:43 10° NNW
Cosmos 1437 Rocket 2.5 13:30:12 10° NNW 13:33:40 57° W 13:37:08 10° S
Cosmos 405 Rocket 3.9 13:31:45 10° WSW 13:34:03 17° WNW 13:36:24 10° NNW
Meteor 1-12 Rocket 4.3 13:28:35 10° S 13:34:16 88° W 13:39:56 10° N
Cosmos 1733 Rocket 4.3 13:30:34 10° SSE 13:34:39 46° E 13:38:46 10° NNE
IGS 5A 3.8 13:31:18 10° NNE 13:35:18 67° E 13:39:17 10° S
Cosmos 1758 4.0 13:32:17 10° SW 13:35:34 29° W 13:38:53 10° NNW
Cosmos 1570 Rocket 4.3 13:30:36 10° NNW 13:35:54 73° ENE 13:41:08 10° SSE
Cosmos 2026 Rocket 4.0 13:31:13 10° N 13:37:25 75° W 13:43:29 10° S
AQUARIUS 4.3 13:33:36 10° NNE 13:38:03 78° ESE 13:42:27 10° S
Cosmos 158 Rocket 3.8 13:33:50 10° NNW 13:38:43 80° WSW 13:43:32 10° SSE
TRACE 4.1 13:38:09 10° S 13:41:15 75° WSW 13:44:22 10° NNW
Cosmos 2242 Rocket 4.5 13:37:07 10° N 13:41:34 55° E 13:45:58 10° SSE
